| time (UTC) | temp F | wind direction | speed MPH | gust MPH | rain 1hr in | rain 24hr in | rain mn in | humidity % | barometer mb |
| 20260504023104 | 43 | 232 | 1.0 | 2.0 | 0.00 | 0.00 | 0.00 | 72 | 1012.0 |
| 20260504022605 | 43 | 232 | 1.0 | 2.0 | 0.00 | 0.00 | 0.00 | 72 | 1012.0 |
| 20260504022105 | 43 | 232 | 1.0 | 2.0 | 0.00 | 0.00 | 0.00 | 71 | 1012.0 |
| 20260504021105 | 44 | 232 | 1.0 | 1.0 | 0.00 | 0.00 | 0.00 | 69 | 1011.9 |
| 20260504020605 | 44 | 232 | 0.0 | 1.0 | 0.00 | 0.00 | 0.00 | 67 | 1011.9 |
| 20260504015605 | 45 | 232 | 0.0 | 1.0 | 0.00 | 0.00 | 0.00 | 66 | 1011.9 |
| 20260504014604 | 45 | 232 | 0.0 | 1.0 | 0.00 | 0.00 | 0.00 | 65 | 1011.8 |
| 20260504014105 | 45 | 232 | 0.0 | 1.0 | 0.00 | 0.00 | 0.00 | 64 | 1011.9 |
| 20260504013605 | 45 | 232 | 0.0 | 0.0 | 0.00 | 0.00 | 0.00 | 63 | 1011.8 |
| 20260504012105 | 46 | 232 | 0.0 | 0.0 | 0.00 | 0.00 | 0.00 | 62 | 1011.6 |
| 20260504011604 | 46 | 232 | 0.0 | 1.0 | 0.00 | 0.00 | 0.00 | 61 | 1011.5 |
| 20260504011105 | 46 | 232 | 0.0 | 1.0 | 0.00 | 0.00 | 0.00 | 62 | 1011.4 |
| 20260504010605 | 47 | 232 | 0.0 | 0.0 | 0.00 | 0.00 | 0.00 | 62 | 1011.3 |
| 20260504010105 | 47 | 232 | 0.0 | 1.0 | 0.00 | 0.00 | 0.00 | 61 | 1011.2 |
| 20260504005605 | 47 | 232 | 0.0 | 0.0 | 0.00 | 0.00 | 0.00 | 60 | 1011.2 |
| 20260504005105 | 48 | 232 | 0.0 | 0.0 | 0.00 | 0.00 | 0.00 | 59 | 1011.1 |
| 20260504004605 | 48 | 232 | 0.0 | 0.0 | 0.00 | 0.00 | 0.00 | 59 | 1011.0 |
| 20260504004104 | 48 | 232 | 0.0 | 0.0 | 0.00 | 0.00 | 0.00 | 58 | 1011.0 |
| 20260504003605 | 48 | 232 | 0.0 | 1.0 | 0.00 | 0.00 | 0.00 | 57 | 1010.9 |
| 20260504003105 | 49 | 232 | 0.0 | 0.0 | 0.00 | 0.00 | 0.00 | 55 | 1010.9 |
| 20260504002605 | 49 | 232 | 0.0 | 1.0 | 0.00 | 0.00 | 0.00 | 54 | 1010.8 |
| 20260504002104 | 49 | 232 | 0.0 | 1.0 | 0.00 | 0.00 | 0.00 | 52 | 1010.7 |
| 20260504001605 | 50 | 232 | 0.0 | 0.0 | 0.00 | 0.00 | 0.00 | 52 | 1010.7 |
| 20260504001104 | 50 | 232 | 0.0 | 0.0 | 0.00 | 0.00 | 0.00 | 51 | 1010.6 |
| 20260504000604 | 51 | 232 | 0.0 | 0.0 | 0.00 | 0.00 | 0.00 | 50 | 1010.5 |
| 20260504000104 | 51 | 232 | 0.0 | 0.0 | 0.00 | 0.00 | 0.00 | 48 | 1010.4 |
| 20260503235604 | 51 | 232 | 0.0 | 1.0 | 0.00 | 0.00 | 0.00 | 48 | 1010.3 |
| 20260503235105 | 52 | 232 | 0.0 | 1.0 | 0.00 | 0.00 | 0.00 | 47 | 1010.3 |
| 20260503234605 | 52 | 232 | 0.0 | 0.0 | 0.00 | 0.00 | 0.00 | 44 | 1010.2 |
| 20260503234104 | 52 | 232 | 0.0 | 1.0 | 0.00 | 0.00 | 0.00 | 44 | 1010.1 |
| 20260503233604 | 53 | 232 | 0.0 | 1.0 | 0.00 | 0.00 | 0.00 | 43 | 1010.1 |
| 20260503233105 | 53 | 232 | 0.0 | 1.0 | 0.00 | 0.00 | 0.00 | 42 | 1010.1 |
| 20260503232604 | 53 | 232 | 1.0 | 2.0 | 0.00 | 0.00 | 0.00 | 41 | 1010.1 |
| 20260503232105 | 54 | 232 | 0.0 | 1.0 | 0.00 | 0.00 | 0.00 | 40 | 1010.0 |
| 20260503231104 | 54 | 143 | 0.0 | 2.0 | 0.00 | 0.00 | 0.00 | 39 | 1010.0 |
| 20260503230605 | 54 | 143 | 0.0 | 1.0 | 0.00 | 0.00 | 0.00 | 38 | 1009.9 |
| 20260503230105 | 54 | 143 | 1.0 | 3.0 | 0.00 | 0.00 | 0.00 | 37 | 1009.9 |
| 20260503225605 | 55 | 138 | 1.0 | 5.0 | 0.00 | 0.00 | 0.00 | 39 | 1009.9 |
| 20260503225104 | 55 | 221 | 1.0 | 3.0 | 0.00 | 0.00 | 0.00 | 39 | 1009.8 |
| 20260503224605 | 55 | 227 | 1.0 | 3.0 | 0.00 | 0.00 | 0.00 | 36 | 1009.8 |
| 20260503224104 | 55 | 312 | 1.0 | 6.0 | 0.00 | 0.00 | 0.00 | 35 | 1009.8 |
| 20260503223604 | 55 | 148 | 1.0 | 5.0 | 0.00 | 0.00 | 0.00 | 36 | 1009.8 |
| 20260503222604 | 55 | 153 | 1.0 | 6.0 | 0.00 | 0.00 | 0.00 | 37 | 1009.7 |
| 20260503222104 | 56 | 327 | 0.0 | 3.0 | 0.00 | 0.00 | 0.00 | 37 | 1009.7 |
| 20260503221604 | 56 | 347 | 2.0 | 9.0 | 0.00 | 0.00 | 0.00 | 34 | 1009.6 |
| 20260503221104 | 56 | 224 | 4.0 | 9.0 | 0.00 | 0.00 | 0.00 | 35 | 1009.6 |
| 20260503220605 | 56 | 254 | 3.0 | 5.0 | 0.00 | 0.00 | 0.00 | 36 | 1009.7 |
| 20260503220105 | 56 | 153 | 3.0 | 8.0 | 0.00 | 0.00 | 0.00 | 34 | 1009.8 |
| 20260503215605 | 56 | 217 | 2.0 | 5.0 | 0.00 | 0.00 | 0.00 | 38 | 1009.7 |
| 20260503215105 | 56 | 217 | 3.0 | 8.0 | 0.00 | 0.00 | 0.00 | 35 | 1009.7 |
| 20260503214605 | 56 | 219 | 3.0 | 9.0 | 0.00 | 0.00 | 0.00 | 35 | 1009.7 |
| 20260503214104 | 56 | 149 | 3.0 | 10.0 | 0.00 | 0.00 | 0.00 | 37 | 1009.8 |
| 20260503213604 | 56 | 213 | 6.0 | 17.0 | 0.00 | 0.00 | 0.00 | 35 | 1009.7 |
| 20260503213104 | 57 | 222 | 5.0 | 12.0 | 0.00 | 0.00 | 0.00 | 34 | 1009.6 |
| 20260503212104 | 58 | 164 | 3.0 | 12.0 | 0.00 | 0.00 | 0.00 | 33 | 1009.7 |
| 20260503211604 | 58 | 228 | 4.0 | 10.0 | 0.00 | 0.00 | 0.00 | 33 | 1009.7 |
| 20260503211104 | 59 | 168 | 6.0 | 16.0 | 0.00 | 0.00 | 0.00 | 32 | 1009.8 |
| 20260503210604 | 59 | 212 | 5.0 | 12.0 | 0.00 | 0.00 | 0.00 | 35 | 1009.6 |
| 20260503210105 | 59 | 180 | 3.0 | 8.0 | 0.00 | 0.00 | 0.00 | 33 | 1009.7 |
| 20260503205104 | 58 | 210 | 2.0 | 12.0 | 0.00 | 0.00 | 0.00 | 38 | 1009.5 |
| 20260503204604 | 57 | 185 | 5.0 | 10.0 | 0.00 | 0.00 | 0.00 | 38 | 1009.5 |
| 20260503204104 | 57 | 204 | 5.0 | 12.0 | 0.00 | 0.00 | 0.00 | 36 | 1009.6 |
| 20260503203604 | 57 | 192 | 2.0 | 9.0 | 0.00 | 0.00 | 0.00 | 38 | 1009.5 |
| 20260503203104 | 57 | 143 | 4.0 | 10.0 | 0.00 | 0.00 | 0.00 | 35 | 1009.6 |
| 20260503202104 | 57 | 219 | 5.0 | 12.0 | 0.00 | 0.00 | 0.00 | 35 | 1009.6 |
| 20260503201605 | 57 | 181 | 5.0 | 13.0 | 0.00 | 0.00 | 0.00 | 36 | 1009.6 |
| 20260503200104 | 58 | 217 | 5.0 | 12.0 | 0.00 | 0.00 | 0.00 | 35 | 1009.6 |
| 20260503195604 | 58 | 218 | 6.0 | 17.0 | 0.00 | 0.00 | 0.00 | 38 | 1009.7 |
| 20260503195104 | 58 | 224 | 4.0 | 9.0 | 0.00 | 0.00 | 0.00 | 41 | 1009.6 |
| 20260503194604 | 57 | 166 | 2.0 | 7.0 | 0.00 | 0.00 | 0.00 | 38 | 1009.5 |
| 20260503194104 | 57 | 157 | 3.0 | 9.0 | 0.00 | 0.00 | 0.00 | 36 | 1009.6 |
| 20260503193604 | 57 | 193 | 1.0 | 10.0 | 0.00 | 0.00 | 0.00 | 39 | 1009.7 |
| 20260503193104 | 57 | 231 | 5.0 | 10.0 | 0.00 | 0.00 | 0.00 | 36 | 1009.6 |
| 20260503192605 | 57 | 231 | 4.0 | 18.0 | 0.00 | 0.00 | 0.00 | 37 | 1009.7 |
| 20260503192104 | 58 | 174 | 3.0 | 8.0 | 0.00 | 0.00 | 0.00 | 36 | 1009.6 |
| 20260503191604 | 58 | 189 | 3.0 | 12.0 | 0.00 | 0.00 | 0.00 | 39 | 1009.4 |
| 20260503191105 | 57 | 228 | 3.0 | 12.0 | 0.00 | 0.00 | 0.00 | 37 | 1009.5 |
| 20260503190604 | 56 | 200 | 4.0 | 13.0 | 0.00 | 0.00 | 0.00 | 38 | 1009.5 |
| 20260503185605 | 55 | 159 | 5.0 | 14.0 | 0.00 | 0.00 | 0.00 | 36 | 1009.5 |
| 20260503184604 | 55 | 188 | 5.0 | 16.0 | 0.00 | 0.00 | 0.00 | 40 | 1009.5 |
| 20260503184104 | 55 | 147 | 5.0 | 14.0 | 0.00 | 0.00 | 0.00 | 37 | 1009.6 |
| 20260503183605 | 55 | 200 | 6.0 | 16.0 | 0.00 | 0.00 | 0.00 | 37 | 1009.7 |
| 20260503183104 | 55 | 176 | 3.0 | 16.0 | 0.00 | 0.00 | 0.00 | 39 | 1009.7 |
| 20260503182605 | 55 | 239 | 3.0 | 13.0 | 0.00 | 0.00 | 0.00 | 36 | 1009.5 |
| 20260503182105 | 56 | 185 | 6.0 | 16.0 | 0.00 | 0.00 | 0.00 | 36 | 1009.5 |
| 20260503181605 | 56 | 206 | 3.0 | 8.0 | 0.00 | 0.00 | 0.00 | 40 | 1009.5 |
| 20260503181104 | 55 | 254 | 3.0 | 13.0 | 0.00 | 0.00 | 0.00 | 38 | 1009.3 |
| 20260503180605 | 54 | 144 | 4.0 | 9.0 | 0.00 | 0.00 | 0.00 | 42 | 1009.6 |
| 20260503180105 | 54 | 245 | 3.0 | 12.0 | 0.00 | 0.00 | 0.00 | 40 | 1009.5 |
| 20260503175104 | 54 | 136 | 7.0 | 14.0 | 0.00 | 0.00 | 0.00 | 40 | 1009.6 |
| 20260503174104 | 54 | 143 | 1.0 | 8.0 | 0.00 | 0.00 | 0.00 | 38 | 1009.8 |
| 20260503173605 | 54 | 224 | 4.0 | 9.0 | 0.00 | 0.00 | 0.00 | 39 | 1009.9 |
| 20260503173107 | 54 | 198 | 3.0 | 7.0 | 0.00 | 0.00 | 0.00 | 45 | 1009.9 |
| 20260503172605 | 53 | 149 | 3.0 | 8.0 | 0.00 | 0.00 | 0.00 | 46 | 1010.0 |
| 20260503172104 | 52 | 179 | 2.0 | 13.0 | 0.00 | 0.00 | 0.00 | 43 | 1010.1 |
| 20260503171604 | 52 | 148 | 5.0 | 14.0 | 0.00 | 0.00 | 0.00 | 45 | 1010.2 |
| 20260503171104 | 52 | 235 | 3.0 | 17.0 | 0.00 | 0.00 | 0.00 | 48 | 1010.2 |
| 20260503170604 | 52 | 220 | 6.0 | 13.0 | 0.00 | 0.00 | 0.00 | 44 | 1010.3 |
| 20260503170105 | 52 | 178 | 4.0 | 12.0 | 0.00 | 0.00 | 0.00 | 46 | 1010.3 |
| 20260503160104 | 54 | 224 | 6.0 | 12.0 | 0.00 | 0.00 | 0.00 | 47 | 1010.1 |
| 20260503150604 | 53 | 158 | 9.0 | 16.0 | 0.00 | 0.00 | 0.00 | 47 | 1009.8 |
| 20260503150105 | 53 | 207 | 5.0 | 17.0 | 0.00 | 0.00 | 0.00 | 48 | 1009.8 |
| 20260503140105 | 53 | 216 | 7.0 | 14.0 | 0.00 | 0.00 | 0.00 | 52 | 1009.7 |
| 20260503131104 | 50 | 131 | 5.0 | 12.0 | 0.00 | 0.00 | 0.00 | 57 | 1009.9 |
| 20260503130604 | 50 | 186 | 6.0 | 17.0 | 0.00 | 0.00 | 0.00 | 57 | 1009.9 |
| 20260503130104 | 50 | 157 | 3.0 | 14.0 | 0.00 | 0.00 | 0.00 | 57 | 1009.9 |
| 20260503120104 | 46 | 210 | 2.0 | 8.0 | 0.00 | 0.00 | 0.00 | 66 | 1010.0 |
| 20260503110603 | 42 | 133 | 3.0 | 13.0 | 0.00 | 0.02 | 0.00 | 70 | 1009.6 |
| 20260503110104 | 42 | 233 | 3.0 | 13.0 | 0.00 | 0.03 | 0.00 | 70 | 1009.6 |
| 20260503090107 | 42 | 0 | 2.0 | 3.0 | 0.00 | 0.03 | 0.00 | 65 | 1009.6 |
| 20260503081607 | 43 | 134 | 1.0 | 3.0 | 0.00 | 0.03 | 0.00 | 63 | 1009.9 |
| 20260503081106 | 44 | 146 | 2.0 | 8.0 | 0.00 | 0.03 | 0.00 | 62 | 1009.8 |
| 20260503080606 | 44 | 218 | 2.0 | 6.0 | 0.00 | 0.03 | 0.00 | 62 | 1009.8 |
| 20260503071107 | 46 | 95 | 4.0 | 12.0 | 0.00 | 0.03 | 0.00 | 56 | 1009.9 |
| 20260503070107 | 46 | 322 | 2.0 | 5.0 | 0.00 | 0.03 | 0.00 | 56 | 1010.2 |
| 20260503060107 | 47 | 149 | 3.0 | 9.0 | 0.00 | 0.03 | 0.00 | 57 | 1010.6 |
| 20260503055107 | 47 | 148 | 5.0 | 12.0 | 0.00 | 0.03 | 0.00 | 55 | 1010.7 |
| 20260503054607 | 47 | 337 | 5.0 | 17.0 | 0.00 | 0.03 | 0.00 | 57 | 1010.8 |
| 20260503053607 | 46 | 168 | 3.0 | 12.0 | 0.00 | 0.03 | 0.00 | 57 | 1010.9 |
| 20260503053107 | 46 | 243 | 3.0 | 10.0 | 0.00 | 0.03 | 0.00 | 58 | 1010.9 |
| 20260503052606 | 47 | 238 | 2.0 | 6.0 | 0.00 | 0.03 | 0.00 | 61 | 1010.9 |
| 20260503051607 | 47 | 142 | 0.0 | 2.0 | 0.00 | 0.03 | 0.00 | 60 | 1011.0 |
| 20260503051106 | 47 | 142 | 2.0 | 3.0 | 0.00 | 0.03 | 0.00 | 60 | 1010.9 |
| 20260503050606 | 47 | 0 | 2.0 | 3.0 | 0.00 | 0.03 | 0.00 | 59 | 1011.0 |
| 20260503050107 | 47 | 0 | 1.0 | 2.0 | 0.00 | 0.03 | 0.00 | 59 | 1011.1 |
| 20260503045606 | 47 | 0 | 0.0 | 2.0 | 0.00 | 0.03 | 0.00 | 58 | 1011.1 |
| 20260503045107 | 47 | 137 | 1.0 | 3.0 | 0.00 | 0.03 | 0.00 | 59 | 1011.1 |
| 20260503044607 | 48 | 144 | 2.0 | 5.0 | 0.00 | 0.03 | 0.00 | 58 | 1011.2 |
| 20260503044107 | 48 | 142 | 2.0 | 3.0 | 0.00 | 0.03 | 0.00 | 57 | 1011.2 |
| 20260503043607 | 48 | 144 | 1.0 | 3.0 | 0.00 | 0.03 | 0.00 | 57 | 1011.3 |
| 20260503043107 | 48 | 143 | 2.0 | 3.0 | 0.00 | 0.03 | 0.00 | 56 | 1011.3 |
| 20260503042607 | 48 | 218 | 2.0 | 5.0 | 0.00 | 0.03 | 0.00 | 57 | 1011.3 |
| 20260503041607 | 48 | 4 | 1.0 | 3.0 | 0.00 | 0.03 | 0.00 | 56 | 1011.3 |
| 20260503041107 | 48 | 0 | 1.0 | 3.0 | 0.00 | 0.03 | 0.00 | 56 | 1011.3 |
| 20260503040606 | 48 | 250 | 1.0 | 3.0 | 0.00 | 0.03 | 0.00 | 57 | 1011.2 |
| 20260503040106 | 49 | 248 | 1.0 | 3.0 | 0.00 | 0.03 | 0.00 | 56 | 1011.3 |
| 20260503035607 | 49 | 140 | 2.0 | 3.0 | 0.00 | 0.03 | 0.03 | 56 | 1011.2 |
| 20260503035106 | 49 | 248 | 1.0 | 3.0 | 0.00 | 0.03 | 0.03 | 55 | 1011.3 |
| 20260503033606 | 49 | 257 | 2.0 | 5.0 | 0.00 | 0.03 | 0.03 | 55 | 1011.3 |
| 20260503033106 | 49 | 0 | 1.0 | 3.0 | 0.00 | 0.03 | 0.03 | 54 | 1011.2 |
| 20260503032107 | 49 | 249 | 1.0 | 3.0 | 0.00 | 0.03 | 0.03 | 53 | 1011.2 |
| 20260503031606 | 49 | 252 | 1.0 | 3.0 | 0.00 | 0.03 | 0.03 | 54 | 1011.2 |
| 20260503031106 | 49 | 337 | 2.0 | 3.0 | 0.00 | 0.03 | 0.03 | 53 | 1011.1 |
| 20260503030606 | 49 | 143 | 2.0 | 6.0 | 0.00 | 0.03 | 0.03 | 54 | 1011.2 |
| 20260503030106 | 49 | 145 | 2.0 | 9.0 | 0.00 | 0.03 | 0.03 | 54 | 1011.2 |
| 20260503025607 | 49 | 249 | 2.0 | 3.0 | 0.00 | 0.03 | 0.03 | 54 | 1011.3 |
| 20260503024606 | 49 | 357 | 2.0 | 5.0 | 0.00 | 0.03 | 0.03 | 55 | 1011.2 |
| 20260503024107 | 49 | 161 | 3.0 | 7.0 | 0.00 | 0.03 | 0.03 | 54 | 1011.2 |